SP7WOJ-15 Weather Reports


Display with metric or nautical units.
time (UTC)temp
F
wind
direction
speed
MPH
gust
MPH
rain 1hr
in
rain 24hr
in
rain mn
in
humidity
%
barometer
mb
20260902140739 70 256 0.0 0.0 0.00 0.04 0.04 77
20260902135728 71 152 0.0 0.0 0.01 0.04 0.04 72
20260902134728 72 264 0.0 0.0 0.04 0.04 0.04 67
20260902132648 69 8 0.0 0.0 0.04 0.04 0.04 78
20260902131637 67 21 1.0 1.0 0.04 0.04 0.04 79
20260902130625 64 356 0.0 0.0 0.04 0.04 0.04 87
20260902124554 63 300 4.0 4.0 0.04 0.04 0.04 84
20260902123542 68 240 2.0 2.0 0.00 0.00 0.00 63
20260902122530 69 236 2.0 2.0 0.00 0.00 0.00 60
20260902121521 74 311 1.0 1.0 0.00 0.00 0.00 51
20260902115445 75 240 2.0 2.0 0.00 0.00 0.00 47
20260902114435 74 252 1.0 1.0 0.00 0.00 0.00 49
20260902113425 76 191 2.0 2.0 0.00 0.00 0.00 48
20260902111350 73 330 1.0 1.0 0.00 0.00 0.00 50
20260902110340 73 272 5.0 6.0 0.00 0.00 0.00 52
20260902105331 73 192 4.0 4.0 0.00 0.00 0.00 53
20260902103256 71 270 2.0 2.0 0.00 0.00 0.00 57
20260902102247 72 344 0.0 0.0 0.00 0.00 0.00 57
20260902101236 71 342 2.0 2.0 0.00 0.00 0.00 60
20260902095203 71 318 5.0 5.0 0.00 0.00 0.00 59
20260902094153 71 265 4.0 5.0 0.00 0.00 0.00 59
20260902093143 70 301 1.0 1.0 0.00 0.00 0.00 64
20260902091110 70 66 2.0 2.0 0.00 0.00 0.00 61
20260902090059 69 292 3.0 3.0 0.00 0.00 0.00 62
20260902085048 69 288 3.0 3.0 0.00 0.00 0.00 60
20260902083016 68 271 0.0 0.0 0.00 0.00 0.00 64
20260902082005 68 280 2.0 2.0 0.00 0.00 0.00 66
20260902080954 68 204 1.0 1.0 0.00 0.00 0.00 68
20260902074922 66 150 3.0 4.0 0.00 0.00 0.00 67
20260902073913 65 308 1.0 1.0 0.00 0.00 0.00 71
20260902072902 64 288 3.0 3.0 0.00 0.00 0.00 71
20260902070813 63 270 1.0 1.0 0.00 0.00 0.00 75
20260902065805 63 216 0.0 0.0 0.00 0.00 0.00 75
20260902064753 61 307 2.0 2.0 0.00 0.00 0.00 79
20260902062719 60 289 4.0 4.0 0.00 0.00 0.00 80
20260902061709 59 285 2.0 2.0 0.00 0.00 0.00 83
20260902060658 57 313 2.0 2.0 0.00 0.00 0.00 86
20260902054615 56 282 3.0 3.0 0.00 0.00 0.00 88
20260902053603 55 276 1.0 1.0 0.00 0.00 0.00 91
20260902052552 54 270 1.0 1.0 0.00 0.00 0.00 93
20260902050519 53 276 0.0 0.0 0.00 0.00 0.00 96
20260902045510 53 288 0.0 0.0 0.00 0.00 0.00 96
20260902043439 52 232 0.0 0.0 0.00 0.00 0.00 96
20260902042429 52 330 0.0 0.0 0.00 0.00 0.00 96
20260902041417 52 300 0.0 0.0 0.00 0.00 0.00 97
20260902035344 52 297 1.0 1.0 0.00 0.00 0.00 96
20260902034335 52 258 0.0 0.0 0.00 0.00 0.00 96
20260902033324 52 270 0.0 0.0 0.00 0.00 0.00 96
20260902031239 53 276 0.0 0.0 0.00 0.00 0.00 95
20260902030229 53 321 0.0 0.0 0.00 0.00 0.00 95
20260902025218 52 282 0.0 0.0 0.00 0.00 0.00 95
20260902023138 53 300 0.0 0.0 0.00 0.00 0.00 95
20260902022126 53 270 0.0 0.0 0.00 0.00 0.00 95
20260902021116 53 204 0.0 0.0 0.00 0.00 0.00 94
20260902015041 53 300 0.0 0.0 0.00 0.00 0.00 94
20260902014030 53 270 0.0 0.0 0.00 0.00 0.00 93
20260902013017 54 255 0.0 0.0 0.00 0.00 0.00 92
20260902010953 54 228 0.0 0.0 0.00 0.00 0.00 92
20260902005944 54 168 0.0 0.0 0.00 0.00 0.00 91
20260902004932 54 262 0.0 0.0 0.00 0.00 0.00 92
20260902002855 54 294 0.0 0.0 0.00 0.00 0.00 91
20260902001845 54 309 0.0 0.0 0.00 0.00 0.00 90
20260902000834 54 288 0.0 0.0 0.00 0.00 0.00 90
20260901235822 54 276 0.0 0.0 0.00 0.00 0.00 91
20260901233747 54 228 0.0 0.0 0.00 0.00 0.00 89
20260901232738 55 303 0.0 0.0 0.00 0.00 0.00 88
20260901231729 56 282 0.0 0.0 0.00 0.00 0.00 86
20260901225656 57 288 1.0 1.0 0.00 0.00 0.00 83
20260901224645 57 297 2.0 2.0 0.00 0.00 0.00 83
20260901223644 57 276 2.0 2.0 0.00 0.00 0.00 82
20260901221610 59 222 0.0 0.0 0.00 0.00 0.00 78
20260901220600 60 270 0.0 0.0 0.00 0.00 0.00 76
20260901215552 60 270 2.0 2.0 0.00 0.01 0.01 74
20260901213516 58 294 2.0 2.0 0.00 0.01 0.01 77
20260901212455 58 246 0.0 0.0 0.00 0.01 0.01 79
20260901211444 58 268 0.0 0.0 0.00 0.01 0.01 79
20260901205412 58 282 1.0 1.0 0.00 0.01 0.01 76
20260901204401 59 258 0.0 0.0 0.00 0.01 0.01 77
20260901203352 60 276 0.0 0.0 0.00 0.01 0.01 76
20260901201315 62 285 2.0 2.0 0.00 0.01 0.01 70
20260901200303 62 288 2.0 2.0 0.00 0.01 0.01 70
20260901195253 62 294 2.0 2.0 0.00 0.01 0.01 70
20260901193216 61 274 0.0 0.0 0.00 0.01 0.01 72
20260901192204 62 308 0.0 0.0 0.00 0.01 0.01 71
20260901191153 63 261 0.0 0.0 0.00 0.01 0.01 69
20260901185130 64 284 2.0 2.0 0.00 0.01 0.01 66
20260901184118 64 300 1.0 1.0 0.00 0.01 0.01 67
20260901183106 64 288 2.0 2.0 0.00 0.01 0.01 66
20260901181019 65 288 0.0 0.0 0.00 0.01 0.01 65
20260901180009 65 280 2.0 2.0 0.00 0.01 0.01 64
20260901175000 65 275 1.0 1.0 0.00 0.01 0.01 64
20260901172925 66 262 0.0 0.0 0.00 0.01 0.01 61
20260901171914 67 268 3.0 3.0 0.00 0.01 0.01 60
20260901170901 68 297 2.0 2.0 0.00 0.01 0.01 58
20260901164823 69 267 3.0 3.0 0.00 0.01 0.01 56
20260901163813 70 270 4.0 4.0 0.00 0.01 0.01 54
20260901162802 70 285 6.0 8.0 0.00 0.01 0.01 53
20260901160724 71 266 4.0 4.0 0.00 0.01 0.01 52
20260901155715 71 313 4.0 4.0 0.00 0.01 0.01 52
20260901154704 71 273 4.0 4.0 0.00 0.01 0.01 52
20260901152630 71 261 4.0 4.0 0.00 0.01 0.01 52
20260901151618 71 318 6.0 6.0 0.00 0.01 0.01 50
20260901150606 71 291 9.0 9.0 0.00 0.01 0.01 51
20260901144519 71 48 6.0 6.0 0.00 0.01 0.01 50
20260901143509 71 348 5.0 6.0 0.00 0.01 0.01 51
20260901142501 71 276 8.0 8.0 0.00 0.01 0.01 51